EW3966 Logy Bay NL CA current weather conditions

sailwx.info

Wind from 059 at 2 knots gusting 6

Air temperature 8.3° C
Dewpoint 6.6° C

Last reported at 2019-Oct-23 15:00 UTC.
Time now 2019-Oct-23 16:05 UTC

Location: N 47°38' W 052°40'.
View on Google Maps.

See reports from other nearby stations

  
Tides and Currents Weather Stations Pressure Air Temp Water Temp Dewpoint Dewpoint Depression Visibility Wind Speed Wind Dir Waves Ship Positions
date/time (UTC)wind fromknots sea level pressurealtimeterstation pressurevisibilityair tempwater tempwave heightnotes
2019-Oct-23 15:00 059 2 gusting 6 8.3
2019-Oct-23 14:50 072 0 gusting 6 8.3
2019-Oct-23 14:46 071 0 gusting 6 8.3
2019-Oct-23 14:40 065 0 gusting 5 8.3
2019-Oct-23 14:35 065 0 gusting 6 8.3
2019-Oct-23 14:31 066 0 gusting 6 8.3
2019-Oct-23 14:25 065 7.8
2019-Oct-23 14:20 065 1 gusting 6 7.8
2019-Oct-23 14:15 060 7.8
2019-Oct-23 14:10 060 0 gusting 6 7.8
2019-Oct-23 14:05 060 1 gusting 6 7.8
2019-Oct-23 14:00 060 7.8
2019-Oct-23 13:55 051 1 gusting 5 7.8
2019-Oct-23 13:50 051 0 gusting 5 7.8
2019-Oct-23 13:46 050 0 gusting 5 7.2
2019-Oct-23 13:40 050 0 gusting 5 7.2
2019-Oct-23 13:35 050 0 gusting 5 7.2
2019-Oct-23 13:30 049 7.2
2019-Oct-23 13:25 049 0 gusting 6 7.2
2019-Oct-23 13:20 070 0 gusting 4 7.2
2019-Oct-23 13:16 068 0 gusting 4 7.2
2019-Oct-23 13:10 068 0 gusting 4 7.2
2019-Oct-23 13:00 068 7.2
2019-Oct-23 12:55 068 7.2
2019-Oct-23 12:50 069 7.2
2019-Oct-23 12:45 069 7.2
2019-Oct-23 12:40 067 2 gusting 5 7.2
2019-Oct-23 12:35 068 7.2
2019-Oct-23 12:30 068 0 gusting 4 7.2
2019-Oct-23 12:25 068 6.7
2019-Oct-23 12:20 068 0 gusting 4 6.7
2019-Oct-23 12:15 069 6.7
2019-Oct-23 12:10 070 0 gusting 6 6.7
2019-Oct-23 12:05 077 0 gusting 6 6.7
2019-Oct-23 12:00 085 6.7
2019-Oct-23 11:55 085 1 gusting 9 6.1
2019-Oct-23 11:50 086 0 gusting 9 6.1
2019-Oct-23 11:45 123 1 gusting 5 6.1
2019-Oct-23 11:40 145 0 gusting 5 6.1
2019-Oct-23 11:35 144 0 gusting 7 6.1
2019-Oct-23 11:31 143 2 gusting 7 6.1
2019-Oct-23 11:25 011 1 gusting 6 6.1
2019-Oct-23 11:20 349 1 gusting 8 6.1
2019-Oct-23 11:15 007 3 gusting 6 6.1
2019-Oct-23 11:10 016 1 gusting 6 6.1
2019-Oct-23 11:05 067 1 gusting 6 6.1
2019-Oct-23 11:01 335 2 gusting 6 6.1
2019-Oct-23 10:55 340 0 gusting 9 6.1
2019-Oct-23 10:50 335 1 gusting 9 6.1
2019-Oct-23 10:45 005 2 gusting 8 6.1
2019-Oct-23 10:35 009 2 gusting 7 6.1
2019-Oct-23 10:25 349 0 gusting 8 6.1
2019-Oct-23 10:20 345 2 gusting 9 6.1
2019-Oct-23 10:10 340 3 gusting 12 6.1
2019-Oct-23 10:05 353 3 gusting 12 6.1
2019-Oct-23 09:55 330 3 gusting 8 6.1
2019-Oct-23 09:50 335 3 gusting 8 6.1
2019-Oct-23 09:45 322 2 gusting 7 6.1
2019-Oct-23 09:40 007 1 gusting 9 6.1
2019-Oct-23 09:35 316 0 gusting 9 6.1
2019-Oct-23 09:30 316 2 gusting 8 6.1
2019-Oct-23 09:25 335 4 gusting 8 6.1
2019-Oct-23 09:20 340 3 gusting 9 6.1
2019-Oct-23 09:15 345 3 gusting 9 6.1
2019-Oct-23 09:10 330 3 gusting 11 6.1
2019-Oct-23 09:05 353 5 gusting 9 6.1
2019-Oct-23 09:00 321 4 gusting 7 6.1
2019-Oct-23 08:55 325 3 gusting 13 6.1
2019-Oct-23 08:50 345 5 gusting 13 6.1
2019-Oct-23 08:45 357 4 gusting 9 6.1
2019-Oct-23 08:40 355 4 gusting 9 6.1
2019-Oct-23 08:35 340 4 gusting 8 6.1
2019-Oct-23 08:30 328 3 gusting 11 6.1
2019-Oct-23 08:25 357 5 gusting 11 6.1
2019-Oct-23 08:10 013 4 gusting 9 6.1
2019-Oct-23 08:05 022 4 gusting 9 6.1
2019-Oct-23 08:02 026 3 gusting 8 6.1
2019-Oct-23 07:56 025 4 gusting 9 6.1
2019-Oct-23 07:50 006 3 gusting 9 6.1
2019-Oct-23 07:46 015 3 gusting 8 6.1
2019-Oct-23 07:41 007 2 gusting 8 6.1
2019-Oct-23 07:35 330 4 gusting 8 6.1
2019-Oct-23 07:32 012 3 gusting 9 6.1
2019-Oct-23 07:25 353 3 gusting 9 6.1
2019-Oct-23 07:20 038 4 gusting 9 6.1
2019-Oct-23 07:16 359 3 gusting 8 6.1
2019-Oct-23 07:10 033 3 gusting 8 6.1
2019-Oct-23 07:05 034 5 gusting 8 6.1
2019-Oct-23 07:02 016 3 gusting 8 6.1
2019-Oct-23 06:55 345 4 gusting 8 6.1
2019-Oct-23 06:50 010 4 gusting 8 6.1
2019-Oct-23 06:46 359 3 gusting 8 6.1
2019-Oct-23 06:40 020 3 gusting 8 6.1
2019-Oct-23 06:35 037 1 gusting 10 6.1
2019-Oct-23 06:31 016 1 gusting 8 6.1
2019-Oct-23 06:25 017 4 gusting 6 6.1
2019-Oct-23 06:20 043 2 gusting 9 6.1
2019-Oct-23 06:18 003 4 gusting 11 6.1
2019-Oct-23 06:10 038 3 gusting 11 6.1
2019-Oct-23 06:05 039 3 gusting 8 6.1
2019-Oct-23 06:01 021 1 gusting 8 6.1
2019-Oct-23 05:55 054 2 gusting 8 6.1
2019-Oct-23 05:50 027 3 gusting 8 6.1
2019-Oct-23 05:46 022 3 gusting 8 6.1
2019-Oct-23 05:41 006 2 gusting 8 6.1
2019-Oct-23 05:35 043 5 gusting 8 6.1
2019-Oct-23 05:31 045 4 gusting 11 6.1
2019-Oct-23 05:25 031 4 gusting 11 6.1
2019-Oct-23 05:20 014 4 gusting 8 6.1
2019-Oct-23 05:16 016 3 gusting 7 6.7
2019-Oct-23 05:10 004 3 gusting 10 6.7
2019-Oct-23 05:05 020 4 gusting 10 6.7
2019-Oct-23 05:01 353 5 gusting 10 6.7
2019-Oct-23 04:55 004 3 gusting 10 6.7
2019-Oct-23 04:50 360 5 gusting 10 6.7
2019-Oct-23 04:46 353 3 gusting 9 6.7
2019-Oct-23 04:40 008 3 gusting 11 6.7
2019-Oct-23 04:35 026 4 gusting 11 6.7
2019-Oct-23 04:30 345 3 gusting 11 6.7
2019-Oct-23 04:25 026 3 gusting 8 6.7
2019-Oct-23 04:20 008 2 gusting 8 6.7
2019-Oct-23 04:15 012 2 gusting 7 6.7
2019-Oct-23 04:10 004 4 gusting 10 6.7
2019-Oct-23 04:05 045 3 gusting 10 6.7
2019-Oct-23 04:01 025 3 gusting 8 6.7
2019-Oct-23 03:55 038 3 gusting 8 6.7
2019-Oct-23 03:50 033 4 gusting 8 6.7
2019-Oct-23 03:47 330 4 gusting 7 6.7
2019-Oct-23 03:43 026 3 gusting 9 6.7
2019-Oct-23 03:36 021 4 gusting 9 6.7
2019-Oct-23 03:35 021 4 gusting 9 6.7
2019-Oct-23 03:20 043 2 gusting 8 6.7
2019-Oct-23 03:16 053 1 gusting 7 6.7
2019-Oct-23 03:10 037 2 gusting 8 6.7
2019-Oct-23 03:05 027 3 gusting 8 6.7
2019-Oct-23 03:00 044 4 gusting 7 6.7
2019-Oct-23 02:55 041 4 gusting 7 6.7
2019-Oct-23 02:50 002 0 gusting 6 6.7
2019-Oct-23 02:45 357 0 gusting 6 6.1
2019-Oct-23 02:40 357 2 gusting 6 6.1
2019-Oct-23 02:35 358 0 gusting 6 6.1
2019-Oct-23 02:31 360 1 gusting 8 6.1
2019-Oct-23 02:25 359 4 gusting 8 6.7
2019-Oct-23 02:20 359 3 gusting 5 6.7
2019-Oct-23 02:15 358 1 gusting 5 6.7
2019-Oct-23 02:10 357 1 gusting 7 6.7
2019-Oct-23 02:05 038 2 gusting 7 6.7
2019-Oct-23 01:55 345 3 gusting 7 6.7
2019-Oct-23 01:45 349 2 gusting 9 6.7
2019-Oct-23 00:11 002 2 gusting 6 6.7
2019-Oct-23 00:02 027 3 gusting 7 6.7
2019-Oct-22 23:55 049 2 gusting 6 6.7
2019-Oct-22 23:50 050 0 gusting 8 6.7
2019-Oct-22 23:47 066 2 gusting 8 6.7
2019-Oct-22 23:40 003 3 gusting 6 6.7
2019-Oct-22 23:35 004 3 gusting 7 6.7
2019-Oct-22 23:31 014 3 gusting 8 6.7
2019-Oct-22 23:25 360 2 gusting 9 6.7
2019-Oct-22 23:20 030 3 gusting 9 6.7
2019-Oct-22 23:17 016 4 gusting 8 6.1
2019-Oct-22 23:10 002 1 gusting 5 6.1
2019-Oct-22 23:05 353 1 gusting 8 6.1
2019-Oct-22 23:01 345 1 gusting 8 6.1
2019-Oct-22 22:56 040 3 gusting 13 6.1
2019-Oct-22 22:51 033 4 gusting 13 6.1
2019-Oct-22 22:47 051 1 gusting 7 6.1
2019-Oct-22 22:40 034 4 gusting 7 6.1
2019-Oct-22 22:35 012 3 gusting 6 6.1
2019-Oct-22 22:32 010 2 gusting 7 6.1
2019-Oct-22 22:25 006 2 gusting 7 6.1
2019-Oct-22 22:20 014 2 gusting 5 6.1
2019-Oct-22 22:16 012 1 gusting 7 6.1
2019-Oct-22 22:10 010 3 gusting 7 6.1
2019-Oct-22 22:05 006 1 gusting 5 6.1
2019-Oct-22 22:01 006 1 gusting 6 6.1
2019-Oct-22 21:55 006 2 gusting 6 6.1
2019-Oct-22 21:50 001 3 gusting 6 6.1
2019-Oct-22 21:46 356 1 gusting 6 6.1
2019-Oct-22 21:40 005 1 gusting 6 6.1
2019-Oct-22 21:35 358 6.1
2019-Oct-22 21:31 358 1 gusting 5 6.1
2019-Oct-22 21:25 335 0 gusting 5 6.1
2019-Oct-22 21:20 345 6.1
2019-Oct-22 21:16 345 0 gusting 6 6.1
2019-Oct-22 21:10 352 6.1
2019-Oct-22 21:05 352 0 gusting 7 6.1
2019-Oct-22 21:02 351 0 gusting 7 6.1
2019-Oct-22 20:55 305 6.1
2019-Oct-22 20:50 345 6.1
2019-Oct-22 20:47 345 1 gusting 6 5.6
2019-Oct-22 20:40 352 0 gusting 6 5.6
2019-Oct-22 20:35 345 1 gusting 7 5.6
2019-Oct-22 20:31 345 2 gusting 7 5.6
2019-Oct-22 20:25 284 0 gusting 7 5.6
2019-Oct-22 20:20 324 1 gusting 9 5.6
2019-Oct-22 20:16 311 0 gusting 9 6.1
2019-Oct-22 20:10 323 2 gusting 6 6.1
2019-Oct-22 20:05 295 1 gusting 6 6.1
2019-Oct-22 20:01 295 6.1
2019-Oct-22 19:55 302 0 gusting 7 6.1
2019-Oct-22 19:50 301 1 gusting 7 6.1
2019-Oct-22 19:46 345 3 gusting 6 6.1
2019-Oct-22 19:40 326 6.1
2019-Oct-22 19:35 345 0 gusting 7 6.1
2019-Oct-22 19:31 315 0 gusting 5 6.1
2019-Oct-22 19:25 321 0 gusting 2 6.1
2019-Oct-22 19:20 321 6.1
2019-Oct-22 19:16 320 3 gusting 6 6.1
2019-Oct-22 19:10 283 6.1
2019-Oct-22 19:05 282 0 gusting 3 6.1
2019-Oct-22 19:02 282 6.1
2019-Oct-22 18:55 282 0 gusting 6 6.1
2019-Oct-22 18:50 282 0 gusting 6 6.1
2019-Oct-22 18:46 290 2 gusting 6 6.1
2019-Oct-22 18:40 293 2 gusting 6 6.1
2019-Oct-22 18:35 292 2 gusting 6 6.1
2019-Oct-22 18:30 294 0 gusting 6 6.1
2019-Oct-22 18:25 294 2 gusting 7 6.1
2019-Oct-22 18:20 295 2 gusting 7 6.1
2019-Oct-22 18:16 282 0 gusting 9 6.1
2019-Oct-22 18:10 282 3 gusting 9 6.1
2019-Oct-22 18:05 301 2 gusting 8 6.7
2019-Oct-22 18:00 352 3 gusting 7 6.7
2019-Oct-22 17:55 008 1 gusting 6 6.7
2019-Oct-22 17:50 008 3 gusting 9 6.7
2019-Oct-22 17:46 335 2 gusting 11 6.7
2019-Oct-22 17:40 290 4 gusting 11 6.7
2019-Oct-22 17:35 321 3 gusting 9 6.7
2019-Oct-22 17:30 335 4 gusting 9 6.7
2019-Oct-22 17:25 322 3 gusting 8 6.7
2019-Oct-22 17:20 307 1 gusting 8 6.7
2019-Oct-22 17:15 292 4 gusting 8 6.7
2019-Oct-22 17:10 340 1 gusting 6 6.7
2019-Oct-22 17:05 329 6.7
2019-Oct-22 17:00 323 3 gusting 8 6.7
2019-Oct-22 16:55 324 2 gusting 8 6.7
2019-Oct-22 16:50 324 2 gusting 7 6.7
2019-Oct-22 16:40 002 1 gusting 8 6.7
2019-Oct-22 16:35 359 3 gusting 9 6.7
2019-Oct-22 16:25 004 3 gusting 6 6.7
2019-Oct-22 16:20 004 2 gusting 6 6.7
2019-Oct-22 16:10 335 3 gusting 7 6.7
2019-Oct-22 16:05 355 1 gusting 6 6.7
2019-Oct-22 15:55 329 3 gusting 8 6.7
2019-Oct-22 15:50 310 4 gusting 9 6.7
2019-Oct-22 15:45 327 2 gusting 9 6.7
2019-Oct-22 15:40 304 1 gusting 8 6.7
2019-Oct-22 15:35 003 3 gusting 8 6.7
2019-Oct-22 15:25 345 2 gusting 8 6.7
2019-Oct-22 15:20 340 0 gusting 8 6.7
2019-Oct-22 15:15 354 2 gusting 8 6.7
2019-Oct-22 15:10 290 0 gusting 6 6.7
2019-Oct-22 15:05 289 0 gusting 7 6.7
2019-Oct-22 15:00 289 1 gusting 9 6.7
2019-Oct-22 14:55 291 1 gusting 9 6.1
2019-Oct-22 14:50 345 3 gusting 6 6.1
2019-Oct-22 14:45 324 1 gusting 7 6.1
2019-Oct-22 14:40 295 2 gusting 9 6.1
2019-Oct-22 14:35 275 0 gusting 9 6.1
2019-Oct-22 14:25 303 6.1
2019-Oct-22 14:20 318 1 gusting 7 6.1
2019-Oct-22 14:15 303 4 gusting 7 6.1
2019-Oct-22 14:10 279 2 gusting 7 6.1
2019-Oct-22 14:05 359 1 gusting 7 6.1
2019-Oct-22 13:55 302 6.1
2019-Oct-22 13:50 301 0 gusting 7 6.1
2019-Oct-22 13:45 304 3 gusting 7 6.1
2019-Oct-22 13:40 310 1 gusting 6 6.1
2019-Oct-22 13:35 316 0 gusting 6 6.1
2019-Oct-22 13:30 316 6.1
2019-Oct-22 13:25 320 1 gusting 6 6.1
2019-Oct-22 13:20 323 3 gusting 6 6.1
2019-Oct-22 13:11 345 1 gusting 6 6.1
2019-Oct-22 13:05 349 1 gusting 6 6.1
2019-Oct-22 13:02 349 6.1
2019-Oct-22 12:56 020 1 gusting 5 6.1
2019-Oct-22 12:50 022 6.1
2019-Oct-22 12:47 022 6.1
2019-Oct-22 12:41 022 6.1
2019-Oct-22 12:35 022 5.6
2019-Oct-22 12:32 022 5.6
2019-Oct-22 12:25 022 5.6
2019-Oct-22 12:20 022 5.0
2019-Oct-22 12:16 022 5.0
2019-Oct-22 12:10 022 5.0
2019-Oct-22 12:06 022 5.0
2019-Oct-22 12:02 022 5.0
2019-Oct-22 11:55 022 5.0
2019-Oct-22 11:50 022 5.0
2019-Oct-22 11:47 022 5.0
2019-Oct-22 11:41 022 5.0
2019-Oct-22 11:35 022 5.0
2019-Oct-22 11:31 022 5.0
2019-Oct-22 11:25 022 5.0
2019-Oct-22 11:20 022 5.0
2019-Oct-22 11:18 022 5.0
2019-Oct-22 11:10 022 5.0
2019-Oct-22 11:05 022 5.0
2019-Oct-22 11:01 022 5.0
2019-Oct-22 10:55 022 5.0
2019-Oct-22 10:50 022 5.0
2019-Oct-22 10:46 022 5.0
2019-Oct-22 10:40 022 0 gusting 3 5.0
2019-Oct-22 10:35 022 5.0
2019-Oct-22 10:31 022 5.0
2019-Oct-22 10:25 022 5.0
2019-Oct-22 10:20 022 5.0
2019-Oct-22 10:16 022 5.0
2019-Oct-22 10:10 022 5.0
2019-Oct-22 10:05 022 5.0
2019-Oct-22 10:01 022 5.0
2019-Oct-22 09:55 022 5.0
2019-Oct-22 09:50 022 5.0
2019-Oct-22 09:46 022 5.0
2019-Oct-22 09:40 022 5.0
2019-Oct-22 09:35 023 0 gusting 4 5.0
2019-Oct-22 09:31 023 0 gusting 6 5.0
2019-Oct-22 09:25 024 2 gusting 6 5.0
2019-Oct-22 09:20 023 0 gusting 4 5.0
2019-Oct-22 09:16 023 1 gusting 5 5.0
2019-Oct-22 09:10 023 0 gusting 4 5.0
2019-Oct-22 09:05 023 2 gusting 6 5.0
2019-Oct-22 09:01 024 5.0
2019-Oct-22 08:55 025 5.6
2019-Oct-22 08:50 025 3 gusting 6 5.6
2019-Oct-22 08:46 036 1 gusting 7 5.6
2019-Oct-22 08:40 004 2 gusting 7 5.6
2019-Oct-22 08:35 289 0 gusting 3 5.0
2019-Oct-22 08:30 289 5.0
2019-Oct-22 08:25 289 5.0
2019-Oct-22 08:20 289 5.0
2019-Oct-22 08:15 289 5.0
2019-Oct-22 08:10 289 5.0
2019-Oct-22 08:05 289 5.0
2019-Oct-22 08:01 289 5.0
2019-Oct-22 07:55 289 5.0
2019-Oct-22 07:50 289 5.0
2019-Oct-22 07:46 289 5.0
2019-Oct-22 07:40 289 5.0
2019-Oct-22 07:35 289 5.0
2019-Oct-22 07:30 289 5.0
2019-Oct-22 07:25 289 5.6
2019-Oct-22 07:20 289 5.6
2019-Oct-22 07:15 289 5.6
2019-Oct-22 07:10 289 5.6
2019-Oct-22 07:05 289 5.6
2019-Oct-22 07:00 289 5.6
2019-Oct-22 06:55 289 5.6
2019-Oct-22 06:50 289 5.6
2019-Oct-22 06:45 289 5.6
2019-Oct-22 06:40 289 5.6
2019-Oct-22 06:35 289 5.6
2019-Oct-22 06:25 289 6.1
2019-Oct-22 06:20 289 6.1
2019-Oct-22 06:10 289 6.1
2019-Oct-22 06:05 289 6.1
2019-Oct-22 05:55 289 6.1
2019-Oct-22 05:50 289 6.1
2019-Oct-22 05:40 289 6.1
2019-Oct-22 05:35 289 6.1
2019-Oct-22 05:30 289 6.1
2019-Oct-22 05:25 289 6.1
2019-Oct-22 05:20 289 6.1
2019-Oct-22 05:10 289 6.1
2019-Oct-22 05:05 289 6.1
2019-Oct-22 05:00 289 6.1
2019-Oct-22 04:55 289 6.1
2019-Oct-22 04:50 289 6.1
2019-Oct-22 04:40 289 6.1
2019-Oct-22 04:35 289 6.1
2019-Oct-22 04:25 289 6.1
2019-Oct-22 04:20 289 6.1
2019-Oct-22 04:15 289 6.1
2019-Oct-22 04:10 289 6.1
2019-Oct-22 04:05 289 6.1
2019-Oct-22 04:00 289 6.1
2019-Oct-22 03:55 289 6.1
2019-Oct-22 03:50 289 6.1
2019-Oct-22 03:45 289 0 gusting 4 6.1
2019-Oct-22 03:40 289 0 gusting 4 6.1
2019-Oct-22 03:35 289 6.1
2019-Oct-22 03:25 289 6.1
2019-Oct-22 03:20 289 6.1
2019-Oct-22 03:15 289 6.1
2019-Oct-22 03:10 289 6.1
2019-Oct-22 03:05 289 6.1
2019-Oct-22 02:55 289 6.1
2019-Oct-22 02:50 289 6.1
2019-Oct-22 02:46 289 6.7
2019-Oct-22 02:41 289 6.7
2019-Oct-22 02:35 289 0 gusting 5 6.7
2019-Oct-22 02:31 289 6.7
2019-Oct-22 02:25 289 6.7
2019-Oct-22 02:20 289 6.7
2019-Oct-22 02:17 289 6.7
2019-Oct-22 02:10 289 6.7
2019-Oct-22 02:05 289 6.7
2019-Oct-22 01:55 289 6.7
2019-Oct-22 01:50 289 6.7
2019-Oct-22 01:46 289 6.7
2019-Oct-22 01:40 289 6.7
2019-Oct-22 01:35 289 6.7
2019-Oct-22 01:31 289 6.7
2019-Oct-22 01:25 289 6.7
2019-Oct-22 01:21 289 6.7
2019-Oct-22 01:16 289 6.7
2019-Oct-22 01:10 289 6.7
2019-Oct-22 01:06 289 6.7
2019-Oct-22 01:01 289 7.2
2019-Oct-22 00:55 289 7.2
2019-Oct-22 00:51 289 7.2
2019-Oct-22 00:46 289 7.2
2019-Oct-22 00:40 289 7.2
2019-Oct-22 00:36 289 7.2
2019-Oct-22 00:32 289 7.2
2019-Oct-22 00:25 289 7.2
2019-Oct-22 00:20 289 7.2
2019-Oct-22 00:16 289 7.2
2019-Oct-22 00:10 289 7.2
2019-Oct-22 00:05 289 7.2
2019-Oct-22 00:01 289 7.2
2019-Oct-21 23:55 289 7.2
2019-Oct-21 23:51 289 7.2
2019-Oct-21 23:46 289 7.2
2019-Oct-21 23:40 289 7.2
2019-Oct-21 23:35 289 7.2
2019-Oct-21 23:31 289 7.2
2019-Oct-21 23:25 289 7.2
2019-Oct-21 23:20 289 7.2
2019-Oct-21 23:16 289 7.2
2019-Oct-21 23:10 289 7.2
2019-Oct-21 23:05 289 1 gusting 5 7.2
2019-Oct-21 23:01 289 7.2
2019-Oct-21 22:55 289 7.2
2019-Oct-21 22:50 289 7.2
2019-Oct-21 22:46 289 0 gusting 5 7.2
2019-Oct-21 22:40 289 7.2
2019-Oct-21 22:35 289 7.2
2019-Oct-21 22:31 289 7.2
2019-Oct-21 22:25 289 0 gusting 5 7.2
2019-Oct-21 22:20 289 0 gusting 5 7.2
2019-Oct-21 22:15 289 7.2
2019-Oct-21 22:10 289 7.2
2019-Oct-21 22:05 289 0 gusting 4 7.2
2019-Oct-21 22:01 289 7.2
2019-Oct-21 21:55 289 7.2
2019-Oct-21 21:46 289 0 gusting 5 7.8
2019-Oct-21 21:40 289 0 gusting 4 7.8
2019-Oct-21 21:35 289 0 gusting 4 7.8
2019-Oct-21 21:31 289 0 gusting 4 7.8
2019-Oct-21 21:25 289 0 gusting 5 7.8
2019-Oct-21 21:20 289 0 gusting 5 7.8
2019-Oct-21 21:16 289 1 gusting 6 7.8
2019-Oct-21 21:10 289 1 gusting 6 7.8
2019-Oct-21 21:05 289 0 gusting 4 7.8
2019-Oct-21 21:01 289 7.8
2019-Oct-21 20:55 289 7.8
2019-Oct-21 20:50 289 0 gusting 4 7.8
2019-Oct-21 20:45 289 8.3
2019-Oct-21 20:40 289 8.3
2019-Oct-21 20:35 289 8.3
2019-Oct-21 20:30 289 8.3
2019-Oct-21 20:25 289 8.3
2019-Oct-21 20:20 289 0 gusting 4 8.3
2019-Oct-21 20:15 289 8.9
2019-Oct-21 20:10 289 8.9
2019-Oct-21 20:05 289 8.9
2019-Oct-21 20:00 289 8.9
2019-Oct-21 19:55 289 2 gusting 6 8.9
2019-Oct-21 19:50 289 1 gusting 6 9.4
2019-Oct-21 19:45 280 2 gusting 6 9.4
2019-Oct-21 19:40 280 9.4
2019-Oct-21 19:35 280 9.4
2019-Oct-21 19:30 281 1 gusting 10 9.4
2019-Oct-21 19:25 282 9.4
2019-Oct-21 19:20 256 3 gusting 10 9.4
2019-Oct-21 19:10 282 5 gusting 12 9.4
2019-Oct-21 19:05 276 3 gusting 11 9.4
2019-Oct-21 18:55 291 3 gusting 11 9.4
2019-Oct-21 18:50 340 6 gusting 11 9.4
2019-Oct-21 18:40 265 6 gusting 13 10.6
2019-Oct-21 18:35 340 6 gusting 13 10.6
2019-Oct-21 18:25 268 7 gusting 15 10.0
2019-Oct-21 18:15 278 6 gusting 17 10.6
2019-Oct-21 18:10 340 7 gusting 17 10.6
2019-Oct-21 18:05 255 6 gusting 17 10.6
2019-Oct-21 18:00 340 6 gusting 13 10.6
2019-Oct-21 17:55 293 5 gusting 17 10.6
2019-Oct-21 17:50 267 6 gusting 17 10.0
2019-Oct-21 17:20 226 6 gusting 15 10.0
2019-Oct-21 17:15 340 6 gusting 15 10.0
2019-Oct-21 17:06 287 5 gusting 16 10.0
2019-Oct-21 17:03 340 6 gusting 18 10.0
2019-Oct-21 16:55 340 8 gusting 18 10.0
2019-Oct-21 16:50 279 6 gusting 20 10.0
2019-Oct-21 16:46 249 7 gusting 19 9.4
2019-Oct-21 16:41 264 7 gusting 19 9.4
2019-Oct-21 16:35 271 7 gusting 19 10.0
2019-Oct-21 16:31 340 7 gusting 19 10.0
2019-Oct-21 16:26 288 6 gusting 19 10.0
2019-Oct-21 16:20 226 6 gusting 20 10.0
2019-Oct-21 16:17 340 6 gusting 20 9.4
2019-Oct-21 16:11 340 9 gusting 18 9.4
2019-Oct-21 16:05 254 7 gusting 19 9.4
2019-Oct-21 16:02 266 7 gusting 19 10.0